Weather History for KTVC - November, 2012

Change the Weather History Date:

Monday, November 12, 2012

  Actual Average Record
Temperature  
Mean Temperature 41 °F 39 °F  
Max Temperature 54 °F 46 °F 69 °F (1911)
Min Temperature 28 °F 32 °F 10 °F (1950)
Degree Days  
Heating Degree Days 24 26  
Month to date heating degree days 280 291  
Since 1 July heating degree days 1001 1078  
Moisture  
Dew Point 31 °F    
Average Humidity 76    
Maximum Humidity 93    
Minimum Humidity 58    
Precipitation  
Precipitation 0.06 in 0.09 in 0.85 in (1982)
Month to date precipitation 0.51 1.11  
Year to date precipitation 27.61 28.97  
Sea Level Pressure  
Sea Level Pressure 29.93 in    
Wind  
Wind Speed 10 mph (WSW)    
Max Wind Speed 22 mph    
Max Gust Speed 29 mph    
Visibility 8 miles    
Events Rain , Snow    
T = Trace of Precipitation, MM = Missing Value Source: NWS Daily Summary

Daily Weather History Graph

Daily Weather History Graph

Search for Another Location

Airport or City:

Trip Planner

Search our weather history database for the weather conditions in past years. The results will help you decide how hot, cold, wet, or windy it might be!

Date:

Astronomy

Nov. 12, 2012 Rise Set
Actual Time 7:35 AM EST 5:16 PM EST
Civil Twilight 7:04 AM EST 5:48 PM EST
Nautical Twilight 6:29 AM EST 6:23 PM EST
Astronomical Twilight 5:54 AM EST 6:57 PM EST
Moon 5:58 AM EST (11/12) 4:22 PM EST (11/12)
Length of Visible Light 10h 43m
Length of Day
9h 40m
Waning Crescent, 2% of the Moon is Illuminated
Nov 12
Waning Crescent
Nov 13
New
Nov 20
First Quarter
Nov 28
Full
Dec 6
Last Quarter

Hourly Weather History & Observations

Time (EST) Temp. Windchill Dew Point Humidity Pressure Visibility Wind Dir Wind Speed Gust Speed Precip Events Conditions
12:53 AM 54.0 °F - 50.0 °F 86% 29.76 in 10.0 mi Variable 5.8 mph - 0.01 in   Overcast
1:19 AM 53.6 °F - 50.0 °F 88% 29.77 in 10.0 mi Variable 6.9 mph - 0.01 in Rain Light Rain
1:50 AM 53.6 °F - 50.0 °F 88% 29.76 in 10.0 mi Variable 5.8 mph - 0.02 in Rain Light Rain
1:53 AM 53.1 °F - 50.0 °F 89% 29.76 in 10.0 mi Variable 6.9 mph - 0.02 in Rain Light Rain
2:11 AM 53.6 °F - 50.0 °F 88% 29.76 in 10.0 mi SSW 5.8 mph - 0.00 in   Overcast
2:53 AM 53.1 °F - 48.9 °F 86% 29.75 in 10.0 mi SW 5.8 mph - 0.00 in   Overcast
3:09 AM 48.2 °F - 46.4 °F 93% 29.77 in 2.5 mi West 17.3 mph 27.6 mph 0.02 in Rain Rain
3:19 AM 48.2 °F - 44.6 °F 87% 29.79 in 4.0 mi West 17.3 mph 26.5 mph 0.02 in Rain Light Rain
3:27 AM 46.4 °F 39.8 °F 42.8 °F 87% 29.79 in 4.0 mi West 16.1 mph 28.8 mph 0.02 in   Overcast
3:39 AM 44.6 °F 38.1 °F 41.0 °F 87% 29.80 in 6.0 mi WSW 13.8 mph 23.0 mph 0.02 in   Overcast
3:53 AM 44.1 °F 38.6 °F 41.0 °F 89% 29.80 in 10.0 mi SW 10.4 mph - 0.02 in Rain Light Rain
4:53 AM 42.1 °F 35.2 °F 39.0 °F 89% 29.83 in 10.0 mi WSW 12.7 mph - 0.00 in Rain Light Rain
5:53 AM 41.0 °F 33.1 °F 36.0 °F 82% 29.86 in 10.0 mi WSW 15.0 mph 21.9 mph 0.00 in Rain Light Rain
6:09 AM 39.2 °F 33.6 °F 35.6 °F 87% 29.84 in 10.0 mi WSW 8.1 mph 18.4 mph 0.00 in Rain Light Rain
6:53 AM 39.0 °F 32.3 °F 35.1 °F 86% 29.87 in 10.0 mi WSW 10.4 mph 18.4 mph 0.00 in Rain Light Rain
7:53 AM 37.0 °F 31.6 °F 34.0 °F 89% 29.88 in 8.0 mi WSW 6.9 mph - 0.01 in   Light Drizzle
8:53 AM 37.0 °F 30.4 °F 30.0 °F 76% 29.91 in 10.0 mi SW 9.2 mph 17.3 mph 0.00 in   Overcast
9:53 AM 35.1 °F 27.4 °F 28.0 °F 76% 29.92 in 10.0 mi WSW 10.4 mph 17.3 mph N/A   Overcast
10:53 AM 34.0 °F 25.5 °F 25.0 °F 70% 29.94 in 10.0 mi WSW 11.5 mph 23.0 mph N/A   Overcast
11:53 AM 33.1 °F 24.9 °F 25.0 °F 72% 29.94 in 10.0 mi WSW 10.4 mph 19.6 mph N/A   Overcast
12:53 PM 33.1 °F 24.4 °F 25.0 °F 72% 29.94 in 9.0 mi WSW 11.5 mph - 0.00 in Snow Light Snow
1:12 PM 33.8 °F 24.3 °F 21.2 °F 60% 29.92 in 10.0 mi WSW 13.8 mph - 0.00 in   Overcast
1:53 PM 33.1 °F 23.4 °F 23.0 °F 66% 29.94 in 10.0 mi WSW 13.8 mph 24.2 mph 0.00 in   Overcast
2:39 PM 33.8 °F 27.0 °F 19.4 °F 56% 29.93 in 10.0 mi SW 8.1 mph 24.2 mph 0.00 in Snow Light Snow
2:53 PM 32.0 °F 22.1 °F 21.0 °F 64% 29.96 in 10.0 mi SW 13.8 mph 25.3 mph 0.00 in Snow Light Snow
3:03 PM 32.0 °F 23.0 °F 21.2 °F 64% 29.95 in 10.0 mi SW 11.5 mph 25.3 mph 0.00 in Snow Light Snow
3:53 PM 32.0 °F 22.5 °F 21.0 °F 64% 29.98 in 10.0 mi WSW 12.7 mph 18.4 mph 0.00 in Snow Light Snow
4:53 PM 30.9 °F 22.2 °F 21.9 °F 69% 30.01 in 5.0 mi WSW 10.4 mph 23.0 mph 0.00 in Snow Light Snow
5:53 PM 30.0 °F 20.5 °F 24.1 °F 79% 30.04 in 2.0 mi WSW 11.5 mph - 0.00 in Snow Light Snow
6:17 PM 28.4 °F 21.2 °F 24.8 °F 86% 30.03 in 1.5 mi WSW 6.9 mph - 0.00 in Snow Light Snow
6:53 PM 28.9 °F 19.2 °F 25.0 °F 85% 30.06 in 1.2 mi WSW 11.5 mph 19.6 mph 0.01 in Snow Light Snow
7:04 PM 28.4 °F 18.5 °F 24.8 °F 86% 30.05 in 2.0 mi WSW 11.5 mph 19.6 mph 0.00 in Snow Light Snow
7:12 PM 28.4 °F 18.5 °F 23.0 °F 80% 30.05 in 4.0 mi WSW 11.5 mph 19.6 mph 0.00 in Snow Light Snow
7:43 PM 28.4 °F 23.3 °F 21.2 °F 74% 30.05 in 10.0 mi SW 4.6 mph - 0.00 in Snow Light Snow
8:53 PM 30.0 °F 21.7 °F 18.0 °F 61% 30.10 in 10.0 mi WSW 9.2 mph - 0.00 in Snow Light Snow
9:53 PM 30.0 °F 20.5 °F 19.0 °F 64% 30.13 in 8.0 mi West 11.5 mph 24.2 mph 0.00 in Snow Light Snow
10:53 PM 28.9 °F 18.6 °F 21.0 °F 72% 30.16 in 4.0 mi WSW 12.7 mph 18.4 mph 0.00 in Snow Light Snow
11:33 PM 28.4 °F 19.1 °F 21.2 °F 74% 30.15 in 4.0 mi West 10.4 mph - 0.00 in Snow Light Snow
11:53 PM 28.9 °F 21.1 °F 21.0 °F 72% 30.19 in 8.0 mi West 8.1 mph - 0.00 in Snow Light Snow